Location: Sperry Observatory
(40.6664°N, 74.3236°W)
Time: 02:00:55
(UTC-04:00)

Amateur Radio Satellites - All Passes

Search period start: 05 July 2015 01:30
Search period end: 06 July 2015 01:30
Location: Sperry Observatory, 40.6664°N, 74.3236°W

Satellite Date Start Highest point End Downlink Frequencies (MHz)
Time Altitude Azimuth
SO-50 05 Jul 01:33:46 01:38:39 55° 53° (NE) 01:43:27 436.795
Cosmos 2491 05 Jul 01:52:37 02:00:35 39° 71° (ENE) 02:08:37 435.465 / 435.565
BEESAT 05 Jul 01:52:44 01:57:30 84° 75° (ENE) 02:02:19 436.000
Oscar 19 05 Jul 01:53:11 01:57:49 35° 96° (E) 02:02:31 437.125/150
Gurwin Techsat 1B 05 Jul 02:04:06 02:06:07 12° 87° (E) 02:08:28 435.225
ITAMSAT 1 05 Jul 02:07:45 02:09:43 12° 88° (E) 02:12:01 435.822/435.867
SWISSCUBE 05 Jul 02:08:29 02:13:13 62° 259° (W) 02:17:59 437.505
ITUPSAT 1 05 Jul 02:14:01 02:18:45 61° 259° (W) 02:23:32 437.325
STARS 05 Jul 02:16:23 02:18:54 16° 65° (ENE) 02:21:35 437.465
YUBILEINY 05 Jul 02:27:27 02:34:05 27° 83° (E) 02:41:03 435.215
RS-15 05 Jul 02:45:23 02:56:15 81° 119° (ESE) 03:07:30 29.354- 29.394
JAS-2 05 Jul 02:46:27 02:48:54 12° 86° (E) 02:52:01 435.910
PCSat 05 Jul 02:54:12 02:57:01 14° 255° (WSW) 02:59:33 145.827
KKS-1 05 Jul 02:59:41 03:04:08 73° 74° (ENE) 03:08:35 437.445
AIST 1 05 Jul 03:13:44 03:18:06 78° 264° (W) 03:22:25
SO-50 05 Jul 03:15:20 03:18:49 19° 249° (WSW) 03:22:07 436.795
MOZHAYETS 4 05 Jul 03:23:03 03:25:11 14° 64° (ENE) 03:27:31
Oscar 19 05 Jul 03:32:44 03:37:05 28° 293° (WNW) 03:41:22 437.125/150
Gurwin Techsat 1B 05 Jul 03:41:29 03:46:49 78° 286° (WNW) 03:52:08 435.225
ITAMSAT 1 05 Jul 03:44:41 03:49:56 77° 286° (WNW) 03:55:07 435.822/435.867
Cosmos 2491 05 Jul 03:49:25 03:57:37 46° 271° (W) 04:05:41 435.465 / 435.565
STARS 05 Jul 03:50:42 03:54:59 50° 260° (W) 03:59:16 437.465
HORYU 2 05 Jul 03:53:16 03:56:18 18° 92° (E) 03:59:31 437.375
YUBILEINY 05 Jul 04:21:43 04:30:20 64° 282° (WNW) 04:38:58 435.215
JAS-2 05 Jul 04:28:12 04:34:53 77° 102° (ESE) 04:42:22 435.910
AO-7 05 Jul 04:47:39 04:55:53 58° 102° (ESE) 05:04:05 29.400- 29.500
MOZHAYETS 4 05 Jul 04:57:23 05:01:55 64° 259° (W) 05:06:31
RS-15 05 Jul 05:00:12 05:10:03 35° 326° (NW) 05:20:04 29.354- 29.394
Gurwin Techsat 1B 05 Jul 05:24:48 05:26:01 11° 301° (WNW) 05:26:55 435.225
CUBESAT XI-V 05 Jul 05:26:40 05:30:15 23° 68° (ENE) 05:33:58 437.345
ITAMSAT 1 05 Jul 05:28:03 05:28:39 10° 301° (WNW) 05:28:56 435.822/435.867
HORYU 2 05 Jul 05:28:57 05:33:09 40° 289° (WNW) 05:37:20 437.375
Cosmos 2504 05 Jul 05:50:15 05:57:00 57° 92° (E) 06:03:46 435.465 / 435.565
JAS-2 05 Jul 06:14:43 06:19:31 21° 297° (WNW) 06:24:24 435.910
CUTE-I 05 Jul 06:24:56 06:29:08 24° 93° (E) 06:33:26 437.470
YUBILEINY 05 Jul 06:26:04 06:29:26 12° 306° (NW) 06:32:10 435.215
STRAND 1 05 Jul 06:35:31 06:40:19 42° 70° (ENE) 06:45:11 437.568
AO-7 05 Jul 06:41:02 06:48:21 34° 301° (WNW) 06:55:27 29.400- 29.500
ISS 05 Jul 06:57:12 06:58:26 12° 130° (SE) 06:59:47 145.825
Cubesat XI-IV 05 Jul 06:58:39 07:03:52 49° 99° (E) 07:09:02 437.490
PRISM 05 Jul 06:59:18 07:03:25 66° 75° (ENE) 07:07:36 437.425
CUBESAT XI-V 05 Jul 07:03:06 07:07:30 37° 264° (W) 07:11:53 437.345
VERMONT LUNAR 05 Jul 07:17:21 07:19:57 25° 155° (SSE) 07:22:35 437.305
O/OREOS (USA 219) 05 Jul 07:18:55 07:23:10 47° 107° (ESE) 07:27:30 437.305
RS-15 05 Jul 07:19:27 07:27:15 20° 360° (N) 07:35:17 29.354- 29.394
BEESAT 3 05 Jul 07:20:38 07:24:41 70° 120° (ESE) 07:28:46 437.485
AIST 2 05 Jul 07:21:17 07:23:16 13° 110° (ESE) 07:25:27 435.215
AUBIESAT-1 05 Jul 07:31:34 07:32:36 11° 60° (ENE) 07:33:48 437.475
BEESAT 2 05 Jul 07:33:47 07:37:52 76° 121° (ESE) 07:42:01 435.950
DANDE 05 Jul 07:34:29 07:40:41 33° 95° (E) 07:45:46 436.750
Cosmos 2504 05 Jul 07:44:15 07:49:44 24° 293° (WNW) 07:55:01 435.465 / 435.565
CUTE-I 05 Jul 08:04:21 08:09:26 43° 290° (WNW) 08:14:26 437.470
M-CUBED/EXP-1 PRIME 05 Jul 08:04:25 08:07:23 32° 67° (ENE) 08:10:31 437.505
CUSAT 1 05 Jul 08:07:58 08:14:32 81° 99° (E) 08:19:29 437.405
STRAND 1 05 Jul 08:15:37 08:19:43 23° 267° (W) 08:23:43 437.568
HO-68 05 Jul 08:16:30 08:20:48 17° 88° (E) 08:25:30 435.675
ISS 05 Jul 08:31:14 08:34:28 72° 324° (NW) 08:37:43 145.825
Cubesat XI-IV 05 Jul 08:39:31 08:43:40 22° 295° (WNW) 08:47:39 437.490
GOMX 1 05 Jul 08:42:47 08:46:32 32° 96° (E) 08:50:17 467.674
SEEDS 05 Jul 08:44:11 08:46:33 15° 90° (E) 08:49:07 437.485
VERMONT LUNAR 05 Jul 08:53:31 08:56:37 75° 170° (S) 08:59:45 437.305
AAUSAT CUBESAT 2 05 Jul 08:53:54 08:55:39 13° 89° (E) 08:57:37 437.432
AIST 2 05 Jul 08:57:12 09:01:24 59° 305° (NW) 09:05:38 435.215
GONETS M04 05 Jul 08:57:55 09:06:22 56° 91° (E) 09:14:51
O/OREOS (USA 219) 05 Jul 08:59:51 09:02:56 18° 306° (NW) 09:05:53 437.305
BEESAT 3 05 Jul 09:00:47 09:03:08 14° 319° (NW) 09:05:23 437.485
AUBIESAT-1 05 Jul 09:03:51 09:07:01 42° 256° (WSW) 09:10:18 437.475
BRITE-PL 05 Jul 09:11:06 09:15:24 67° 285° (WNW) 09:19:30 437.365/2234.400
BEESAT 2 05 Jul 09:14:15 09:16:29 14° 320° (NW) 09:18:37 435.950
DANDE 05 Jul 09:17:12 09:23:50 39° 284° (WNW) 09:28:59 436.750
Oscar 11 05 Jul 09:18:01 09:18:32 10° 87° (E) 09:19:20 145.826/435.025
COMPASS 1 05 Jul 09:19:09 09:22:50 29° 95° (E) 09:26:34 437.405
PHONESAT 2.4 05 Jul 09:21:52 09:25:06 40° 159° (SSE) 09:28:21 2401.200-2431.200
DOVE 4 05 Jul 09:22:52 09:26:57 56° 100° (E) 09:31:04 437.250
CUTE 1.7 + AOD 2 05 Jul 09:31:22 09:35:38 64° 100° (E) 09:39:54 437.475
RS-15 05 Jul 09:34:31 09:44:36 34° 33° (NNE) 09:55:16 29.354- 29.394
UNISAT 6 05 Jul 09:34:36 09:36:58 15° 66° (ENE) 09:39:30 437.425
CANX-2 05 Jul 09:34:50 09:39:09 79° 103° (ESE) 09:43:27 2200.000
M-CUBED/EXP-1 PRIME 05 Jul 09:40:58 09:42:29 12° 264° (W) 09:43:53 437.505
FUNcube-1 05 Jul 09:45:38 09:47:13 12° 89° (E) 09:49:02 145.935
CUSAT 1 05 Jul 09:54:40 09:57:20 13° 291° (WNW) 09:59:27 437.405
UWE-3 05 Jul 09:58:52 10:02:14 23° 94° (E) 10:05:44 435.000/436.395/437.385
HO-68 05 Jul 10:02:16 10:09:28 82° 287° (WNW) 10:16:38 435.675
CINEMA 3 05 Jul 10:02:35 10:06:46 71° 101° (ESE) 10:11:00 145.822/145.860
ISS 05 Jul 10:09:05 10:11:19 17° 343° (NNW) 10:13:32 145.825
QB50P1 05 Jul 10:11:06 10:13:32 16° 66° (ENE) 10:16:09 145.935-145.965
ANTELSAT 05 Jul 10:17:16 10:21:18 42° 73° (ENE) 10:25:21 437.575/2403.000
SEEDS 05 Jul 10:18:33 10:22:38 45° 287° (WNW) 10:26:42 437.485
GOMX 1 05 Jul 10:21:26 10:24:33 20° 292° (WNW) 10:27:30 467.674
NANOSAT C BR1 05 Jul 10:24:12 10:27:20 21° 68° (ENE) 10:30:34 145.865
AAUSAT CUBESAT 2 05 Jul 10:27:31 10:31:38 52° 286° (WNW) 10:35:44 437.432
TIGRISAT 05 Jul 10:29:05 10:33:15 56° 74° (ENE) 10:37:26 435.000
DX 1 05 Jul 10:30:22 10:32:24 13° 90° (E) 10:34:39 434.975-435.025
VERMONT LUNAR 05 Jul 10:30:24 10:33:32 82° 187° (S) 10:36:41 437.305
DUCHIFAT 1 05 Jul 10:30:35 10:33:57 24° 69° (ENE) 10:37:23 145.980
Cosmos 2499 05 Jul 10:32:05 10:38:34 43° 90° (E) 10:45:14 435.465 / 435.565
POLYITAN 1 05 Jul 10:36:28 10:40:06 29° 70° (ENE) 10:43:48 437.675
DELFI C3 05 Jul 10:37:17 10:41:19 59° 100° (E) 10:45:20 145.870
BUGSAT 1 05 Jul 10:43:53 10:47:08 22° 69° (ENE) 10:50:28 437.445
ZACube-1 05 Jul 10:43:57 10:48:08 58° 100° (E) 10:52:23 437.345
CUBEBUG 2 05 Jul 10:45:23 10:49:36 81° 284° (WNW) 10:53:55 437.445
UKube-1 05 Jul 10:49:06 10:52:14 20° 93° (E) 10:55:28 .
Oscar 11 05 Jul 10:50:56 10:55:16 68° 285° (WNW) 10:59:34 145.826/435.025
COMPASS 1 05 Jul 10:54:59 10:58:23 23° 291° (WNW) 11:01:42 437.405
GONETS M04 05 Jul 10:55:57 11:03:41 32° 291° (WNW) 11:11:14
HUMSAT D 05 Jul 10:56:06 10:59:52 32° 96° (E) 11:03:41 437.325/437.525
PHONESAT 2.4 05 Jul 10:59:33 11:02:59 87° 179° (S) 11:06:28 2401.200-2431.200
DOVE 4 05 Jul 11:02:35 11:04:20 12° 295° (WNW) 11:05:53 437.250
QB50P2 05 Jul 11:05:24 11:09:35 63° 75° (ENE) 11:13:47 145.880/145.840
POPSAT HIP 1 05 Jul 11:05:54 11:10:05 61° 75° (ENE) 11:14:16 437.405
UNISAT 6 05 Jul 11:09:16 11:13:25 48° 261° (W) 11:17:34 437.425
CUTE 1.7 + AOD 2 05 Jul 11:09:21 11:11:04 12° 295° (WNW) 11:12:37 437.475
AISAT 05 Jul 11:10:25 11:13:46 21° 93° (E) 11:17:12 437.250
FUNcube-1 05 Jul 11:19:48 11:23:56 55° 286° (WNW) 11:28:08 145.935
CUBEBUG 1 05 Jul 11:25:58 11:28:43 17° 91° (E) 11:31:35 437.445
UWE-3 05 Jul 11:35:08 11:38:47 29° 289° (WNW) 11:42:28 435.000/436.395/437.385
CINEMA 3 05 Jul 11:42:57 11:43:30 10° 296° (WNW) 11:43:48 145.822/145.860
QB50P1 05 Jul 11:44:58 11:49:04 46° 261° (W) 11:53:10 145.935-145.965
ESTCUBE 1 05 Jul 11:45:10 11:49:15 33° 96° (E) 11:53:22 437.505/2401.250
RS-15 05 Jul 11:46:57 11:58:45 88° 238° (WSW) 12:10:58 29.354- 29.394
ISS 05 Jul 11:47:19 11:48:43 12° 4° (N) 11:50:08 145.825
HO-68 05 Jul 11:51:59 11:56:16 16° 305° (NW) 12:00:13 435.675
ANTELSAT 05 Jul 11:55:40 11:58:21 16° 269° (W) 12:00:52 437.575/2403.000
VELOX 1 05 Jul 11:58:39 12:03:05 71° 102° (ESE) 12:07:28 145.980
NANOSAT C BR1 05 Jul 11:59:09 12:03:00 32° 263° (W) 12:06:49 145.865
DX 1 05 Jul 12:04:47 12:09:03 52° 287° (WNW) 12:13:14 434.975-435.025
DUCHIFAT 1 05 Jul 12:05:58 12:09:40 28° 264° (W) 12:13:18 145.980
VERMONT LUNAR 05 Jul 12:07:27 12:10:16 30° 203° (SSW) 12:13:06 437.305
TIGRISAT 05 Jul 12:08:42 12:10:27 12° 271° (W) 12:11:56 435.000
50 SAT 05 Jul 12:11:58 12:15:50 61° 285° (WNW) 12:19:42 437.505
POLYITAN 1 05 Jul 12:12:35 12:16:02 23° 266° (W) 12:19:22 437.675
DELFI C3 05 Jul 12:14:23 12:15:58 12° 295° (WNW) 12:17:20 145.870
BUGSAT 1 05 Jul 12:18:43 12:22:28 30° 264° (W) 12:26:11 437.445
ZACube-1 05 Jul 12:22:08 12:24:06 13° 295° (WNW) 12:25:53 437.345
SPROUT 05 Jul 12:24:04 12:27:16 21° 93° (E) 12:30:33 437.525
UKube-1 05 Jul 12:24:32 12:28:29 35° 290° (WNW) 12:32:23 .
Cosmos 2499 05 Jul 12:25:40 12:31:54 32° 290° (WNW) 12:38:07 435.465 / 435.565
HUMSAT D 05 Jul 12:32:18 12:35:26 20° 292° (WNW) 12:38:29 437.325/437.525
PHONESAT 2.4 05 Jul 12:37:34 12:41:00 68° 193° (SSW) 12:44:27 2401.200-2431.200
YUBILEINY 05 Jul 12:38:48 12:41:38 12° 54° (NE) 12:45:10 435.215
QB50P2 05 Jul 12:44:51 12:45:58 11° 272° (W) 12:46:48 145.880/145.840
POPSAT HIP 1 05 Jul 12:45:10 12:46:26 11° 272° (W) 12:47:26 437.405
AISAT 05 Jul 12:46:27 12:50:26 33° 290° (WNW) 12:54:22 437.250
CUBEBUG 1 05 Jul 13:01:11 13:05:19 42° 288° (WNW) 13:09:23 437.445
TISAT 1 05 Jul 13:01:31 13:05:20 34° 97° (E) 13:09:10 437.305
Oscar 19 05 Jul 13:09:38 13:14:33 49° 72° (ENE) 13:19:30 437.125/150
ESTCUBE 1 05 Jul 13:22:19 13:25:58 24° 292° (WNW) 13:29:31 437.505/2401.250
ISS 05 Jul 13:23:16 13:25:59 24° 23° (NNE) 13:28:43 145.825
Gurwin Techsat 1B 05 Jul 13:24:11 13:27:59 21° 65° (ENE) 13:31:58 435.225
ITAMSAT 1 05 Jul 13:24:44 13:28:26 20° 64° (ENE) 13:32:16 435.822/435.867
VELOX 1 05 Jul 13:37:29 13:39:06 12° 297° (WNW) 13:40:29 145.980
BEESAT 05 Jul 13:54:02 13:57:42 22° 93° (E) 14:01:28 436.000
AO-7 05 Jul 13:57:50 14:02:39 18° 50° (NE) 14:07:49 29.400- 29.500
SPROUT 05 Jul 13:59:35 14:03:26 32° 289° (WNW) 14:07:13 437.525
RS-15 05 Jul 14:01:20 14:09:59 23° 257° (WSW) 14:18:08 29.354- 29.394
SWISSCUBE 05 Jul 14:09:18 14:13:40 34° 97° (E) 14:18:02 437.505
ITUPSAT 1 05 Jul 14:15:05 14:19:29 35° 97° (E) 14:23:54 437.325
PHONESAT 2.4 05 Jul 14:15:57 14:18:43 22° 208° (SSW) 14:21:28 2401.200-2431.200
YUBILEINY 05 Jul 14:32:03 14:40:45 64° 78° (ENE) 14:49:29 435.215
TISAT 1 05 Jul 14:37:50 14:40:54 19° 292° (WNW) 14:43:51 437.305
JAS-2 05 Jul 14:42:15 14:46:30 27° 66° (ENE) 14:51:02 435.910
Oscar 19 05 Jul 14:50:30 14:54:14 19° 269° (W) 14:57:48 437.125/150
HORYU 2 05 Jul 14:51:47 14:54:36 17° 66° (ENE) 14:57:35 437.375
KKS-1 05 Jul 14:52:39 14:54:56 14° 90° (E) 14:57:26 437.445
Cosmos 2491 05 Jul 14:53:12 15:01:21 45° 89° (E) 15:09:36 435.465 / 435.565
ISS 05 Jul 14:59:23 15:02:32 49° 221° (SW) 15:05:40 145.825
Gurwin Techsat 1B 05 Jul 15:02:28 15:07:38 51° 260° (W) 15:12:50 435.225
ITAMSAT 1 05 Jul 15:02:29 15:07:34 52° 260° (W) 15:12:42 435.822/435.867
BEESAT 05 Jul 15:31:14 15:35:41 38° 290° (WNW) 15:40:06 436.000
Cosmos 2504 05 Jul 15:36:51 15:41:27 18° 64° (ENE) 15:46:39 435.465 / 435.565
BEESAT 3 05 Jul 15:39:37 15:43:25 37° 51° (NE) 15:47:10 437.485
STARS 05 Jul 15:40:53 15:44:40 29° 96° (E) 15:48:29 437.465
AIST 1 05 Jul 15:42:26 15:46:45 62° 95° (E) 15:51:09
AIST 2 05 Jul 15:42:42 15:44:04 11° 37° (NE) 15:45:34 435.215
AO-7 05 Jul 15:45:55 15:54:13 74° 69° (ENE) 16:02:35 29.400- 29.500
SWISSCUBE 05 Jul 15:47:24 15:51:23 26° 293° (WNW) 15:55:15 437.505
SO-50 05 Jul 15:49:11 15:52:21 19° 110° (ESE) 15:55:45 436.795
PCSat 05 Jul 15:49:48 15:55:11 77° 117° (ESE) 16:00:38 145.827
O/OREOS (USA 219) 05 Jul 15:52:29 15:53:14 10° 49° (NE) 15:54:13 437.305
ITUPSAT 1 05 Jul 15:53:16 15:57:13 25° 293° (WNW) 16:01:04 437.325
BEESAT 2 05 Jul 15:53:19 15:57:12 41° 52° (NE) 16:01:02 435.950
HORYU 2 05 Jul 16:26:42 16:30:56 44° 261° (W) 16:35:11 437.375
JAS-2 05 Jul 16:26:51 16:31:34 35° 264° (W) 16:36:26 435.910
KKS-1 05 Jul 16:27:38 16:31:57 51° 287° (WNW) 16:36:14 437.445
YUBILEINY 05 Jul 16:29:57 16:37:00 27° 276° (W) 16:43:45 435.215
Cubesat XI-IV 05 Jul 16:45:15 16:46:19 11° 59° (ENE) 16:47:43 437.490
Cosmos 2491 05 Jul 16:50:08 16:58:21 40° 289° (WNW) 17:06:27 435.465 / 435.565
MOZHAYETS 4 05 Jul 16:53:02 16:57:08 31° 95° (E) 17:01:16
STARS 05 Jul 17:17:24 17:21:02 25° 291° (WNW) 17:24:34 437.465
BEESAT 3 05 Jul 17:18:10 17:21:08 19° 248° (WSW) 17:23:57 437.485
AIST 2 05 Jul 17:19:11 17:23:24 81° 56° (ENE) 17:27:32 435.215
AIST 1 05 Jul 17:23:18 17:24:58 12° 294° (WNW) 17:26:23
Cosmos 2504 05 Jul 17:27:08 17:34:42 87° 266° (W) 17:42:50 435.465 / 435.565
SO-50 05 Jul 17:27:52 17:32:31 53° 307° (NW) 17:37:19 436.795
O/OREOS (USA 219) 05 Jul 17:28:54 17:33:27 88° 65° (ENE) 17:38:00 437.305
BEESAT 2 05 Jul 17:32:10 17:34:59 18° 248° (WSW) 17:37:39 435.950
PCSat 05 Jul 17:35:29 17:39:18 19° 317° (NW) 17:42:58 145.827
AO-7 05 Jul 17:41:23 17:47:53 23° 269° (W) 17:54:03 29.400- 29.500
CUTE-I 05 Jul 17:46:15 17:51:08 38° 69° (ENE) 17:56:07 437.470
Cubesat XI-IV 05 Jul 18:20:17 18:25:38 78° 75° (ENE) 18:31:03 437.490
MOZHAYETS 4 05 Jul 18:30:21 18:34:16 27° 291° (WNW) 18:38:06
BRITE-PL 05 Jul 18:44:33 18:47:43 17° 66° (ENE) 18:50:59 437.365/2234.400
CUSAT 1 05 Jul 18:46:53 18:49:14 29° 76° (ENE) 18:51:37 437.405
HO-68 05 Jul 18:46:58 18:50:20 14° 54° (NE) 18:54:02 435.675
STRAND 1 05 Jul 18:47:52 18:50:26 14° 89° (E) 18:53:16 437.568
CUBESAT XI-V 05 Jul 18:59:45 19:04:22 55° 100° (E) 19:08:55 437.345
GONETS M04 05 Jul 19:09:02 19:15:57 27° 66° (ENE) 19:23:06
SO-50 05 Jul 19:13:06 19:14:17 11° 329° (NNW) 19:15:16 436.795
Cosmos 2504 05 Jul 19:21:52 19:26:06 15° 279° (W) 19:29:56 435.465 / 435.565
CUTE-I 05 Jul 19:26:46 19:31:20 27° 266° (W) 19:35:50 437.470
SEEDS 05 Jul 19:37:49 19:38:43 11° 64° (ENE) 19:39:50 437.485
GOMX 1 05 Jul 19:49:55 19:54:38 39° 72° (ENE) 19:59:08 467.674
DANDE 05 Jul 20:00:03 20:02:20 24° 266° (W) 20:04:29 436.750
Cubesat XI-IV 05 Jul 20:03:57 20:06:28 13° 273° (W) 20:08:38 437.490
COMPASS 1 05 Jul 20:10:40 20:13:38 20° 68° (ENE) 20:16:44 437.405
PRISM 05 Jul 20:17:07 20:21:19 71° 285° (WNW) 20:25:27 437.425
BRITE-PL 05 Jul 20:20:23 20:25:51 66° 259° (W) 20:30:58 437.365/2234.400
Cosmos 2499 05 Jul 20:23:19 20:27:33 16° 61° (ENE) 20:32:25 435.465 / 435.565
CUTE 1.7 + AOD 2 05 Jul 20:23:53 20:27:51 42° 73° (ENE) 20:31:52 437.475
STRAND 1 05 Jul 20:25:05 20:30:13 67° 287° (WNW) 20:35:17 437.568
CANX-2 05 Jul 20:27:19 20:31:24 52° 74° (ENE) 20:35:32 2200.000
DOVE 4 05 Jul 20:27:39 20:32:24 58° 75° (ENE) 20:36:55 437.250
HO-68 05 Jul 20:29:54 20:37:00 73° 72° (ENE) 20:44:09 435.675
CUBESAT XI-V 05 Jul 20:38:29 20:41:23 16° 295° (WNW) 20:44:06 437.345
AUBIESAT-1 05 Jul 20:44:58 20:46:48 13° 96° (E) 20:48:54 437.475
UWE-3 05 Jul 20:56:29 20:59:24 19° 68° (ENE) 21:02:24 435.000/436.395/437.385
CINEMA 3 05 Jul 21:03:52 21:08:18 63° 75° (ENE) 21:12:35 145.822/145.860
GONETS M04 05 Jul 21:05:00 21:13:37 67° 267° (W) 21:22:09
SEEDS 05 Jul 21:09:50 21:14:00 69° 260° (W) 21:18:11 437.485
AAUSAT CUBESAT 2 05 Jul 21:17:31 21:21:39 84° 258° (WSW) 21:25:50 437.432
M-CUBED/EXP-1 PRIME 05 Jul 21:18:48 21:22:44 34° 102° (ESE) 21:26:55 437.505
DELFI C3 05 Jul 21:24:16 21:27:52 33° 71° (ENE) 21:31:32 145.870
DX 1 05 Jul 21:26:26 21:28:16 13° 64° (ENE) 21:30:17 434.975-435.025
GOMX 1 05 Jul 21:28:47 21:32:52 23° 266° (W) 21:36:41 467.674
ZACube-1 05 Jul 21:39:45 21:43:43 43° 73° (ENE) 21:47:41 437.345
CUBEBUG 2 05 Jul 21:43:12 21:47:30 81° 78° (ENE) 21:51:42 437.445
UKube-1 05 Jul 21:44:07 21:46:57 18° 66° (ENE) 21:49:56 .
Oscar 11 05 Jul 21:45:04 21:49:22 88° 74° (ENE) 21:53:42 145.826/435.025
COMPASS 1 05 Jul 21:45:19 21:49:07 33° 264° (W) 21:52:54 437.405
HUMSAT D 05 Jul 21:48:06 21:51:16 22° 69° (ENE) 21:54:31 437.325/437.525
CUTE 1.7 + AOD 2 05 Jul 22:01:26 22:04:02 15° 270° (W) 22:06:29 437.475
CANX-2 05 Jul 22:05:46 22:07:43 13° 271° (W) 22:09:28 2200.000
DOVE 4 05 Jul 22:07:52 22:10:31 14° 270° (W) 22:12:52 437.250
AISAT 05 Jul 22:08:13 22:11:26 20° 67° (ENE) 22:14:44 437.250
Cosmos 2499 05 Jul 22:14:06 22:22:03 82° 82° (E) 22:30:35 435.465 / 435.565
FUNcube-1 05 Jul 22:15:02 22:19:14 75° 259° (W) 22:23:24 145.935
AUBIESAT-1 05 Jul 22:17:37 22:21:50 63° 290° (WNW) 22:26:21 437.475
HO-68 05 Jul 22:20:18 22:25:29 20° 270° (W) 22:30:22 435.675
CUBEBUG 1 05 Jul 22:22:26 22:24:53 15° 65° (ENE) 22:27:31 437.445
TIGRISAT 05 Jul 22:22:49 22:24:22 12° 89° (E) 22:26:10 435.000
UWE-3 05 Jul 22:31:49 22:35:44 35° 263° (W) 22:39:35 435.000/436.395/437.385
CINEMA 3 05 Jul 22:44:25 22:45:57 11° 271° (W) 22:47:12 145.822/145.860
ESTCUBE 1 05 Jul 22:44:34 22:48:29 30° 70° (ENE) 22:52:30 437.505/2401.250
M-CUBED/EXP-1 PRIME 05 Jul 22:53:56 22:57:24 24° 295° (WNW) 23:00:57 437.505
QB50P2 05 Jul 22:54:07 22:54:27 10° 88° (E) 22:55:05 145.880/145.840
50 SAT 05 Jul 22:55:28 22:59:15 67° 76° (ENE) 23:03:05 437.505
VELOX 1 05 Jul 22:55:39 23:00:03 61° 74° (ENE) 23:04:28 145.980
PCSat 05 Jul 22:57:14 22:58:41 11° 35° (NE) 23:00:20 145.827
DX 1 05 Jul 22:59:41 23:04:02 64° 258° (WSW) 23:08:24 434.975-435.025
DELFI C3 05 Jul 23:00:16 23:03:05 18° 268° (W) 23:05:47 145.870
UNISAT 6 05 Jul 23:01:12 23:05:11 33° 97° (E) 23:09:16 437.425
GONETS M04 05 Jul 23:06:46 23:08:58 11° 285° (WNW) 23:10:24
ZACube-1 05 Jul 23:17:50 23:20:21 15° 269° (W) 23:22:41 437.345
SPROUT 05 Jul 23:18:37 23:21:19 17° 66° (ENE) 23:24:08 437.525
UKube-1 05 Jul 23:18:40 23:22:48 42° 262° (W) 23:26:56 .
HUMSAT D 05 Jul 23:23:20 23:26:54 28° 265° (W) 23:30:25 437.325/437.525
QB50P1 05 Jul 23:30:34 23:34:08 27° 95° (E) 23:37:46 145.935-145.965
AISAT 05 Jul 23:43:34 23:47:46 39° 262° (W) 23:51:57 437.250
NANOSAT C BR1 05 Jul 23:43:57 23:47:52 38° 98° (E) 23:51:48 145.865
ANTELSAT 05 Jul 23:45:28 23:49:53 79° 284° (WNW) 23:54:23 437.575/2403.000
DUCHIFAT 1 05 Jul 23:50:19 23:54:19 44° 99° (E) 23:58:20 145.980
TISAT 1 05 Jul 23:53:31 23:57:01 26° 69° (ENE) 00:00:34 437.305
CUBEBUG 1 05 Jul 23:56:31 00:00:52 53° 260° (W) 00:05:13 437.445
POLYITAN 1 05 Jul 23:57:12 00:01:21 56° 100° (E) 00:05:31 437.675
TIGRISAT 05 Jul 23:57:14 00:01:33 61° 285° (WNW) 00:05:58 435.000
BUGSAT 1 06 Jul 00:00:54 00:04:39 36° 97° (E) 00:08:24 437.445
RS-15 06 Jul 00:07:49 00:09:58 11° 97° (E) 00:13:18 29.354- 29.394
Cosmos 2499 06 Jul 00:09:04 00:14:31 19° 277° (W) 00:19:44 435.465 / 435.565
SO-50 06 Jul 00:19:53 00:23:32 20° 41° (NE) 00:27:14 436.795
ESTCUBE 1 06 Jul 00:21:34 00:25:22 25° 266° (W) 00:29:08 437.505/2401.250
QB50P2 06 Jul 00:26:40 00:30:52 64° 285° (WNW) 00:35:02 145.880/145.840
POPSAT HIP 1 06 Jul 00:27:01 00:31:12 66° 285° (WNW) 00:35:21 437.405
VELOX 1 06 Jul 00:35:07 00:37:05 12° 271° (W) 00:38:47 145.980
PCSat 06 Jul 00:38:03 00:43:24 57° 57° (ENE) 00:48:44 145.827
UNISAT 6 06 Jul 00:38:21 00:41:49 23° 291° (WNW) 00:45:15 437.425
SPROUT 06 Jul 00:52:57 00:57:05 43° 262° (W) 01:01:12 437.525
BEESAT 06 Jul 01:00:19 01:04:09 25° 67° (ENE) 01:08:06 436.000
Cosmos 2491 06 Jul 01:04:29 01:10:38 22° 62° (ENE) 01:17:08 435.465 / 435.565
QB50P1 06 Jul 01:06:29 01:09:56 24° 291° (WNW) 01:13:18 145.935-145.965
SWISSCUBE 06 Jul 01:15:31 01:19:54 38° 70° (ENE) 01:24:22 437.505
NANOSAT C BR1 06 Jul 01:20:31 01:23:27 18° 293° (WNW) 01:26:15 145.865
ITUPSAT 1 06 Jul 01:21:33 01:25:58 40° 71° (ENE) 01:30:28 437.325
Oscar 19 06 Jul 01:22:31 01:25:47 18° 90° (E) 01:29:16 437.125/150
